Flag for Canada Weather past 2 weeks in Kugluktuk, Nunavut, Canada

Now
61 °F

Broken clouds.


Feels Like: 61 °F
Forecast: 42 / 55 °F
Wind: 10 mph from West

Location: Coppermine

Current Time: Jul 4, 2015 at 9:22:24 AM

Latest Report: Jul 4, 2015 at 9:00 AM


Visibility: 15 mi

Pressure: 30.02 "Hg

Humidity: 63%

Dew point: 48 °F

Location of KugluktukLocation

Historic Weather in Kugluktuk — Graph

°F

Kugluktuk temperature yesterday

Maximum temperature yesterday: 59 °F (at 4:00 PM)
Minimum temperature yesterday: 39 °F (at 4:00 AM)
Average temperature yesterday: 50 °F

Past Weeks' High & Low Weather Summary

 TemperatureHumidityPressure
High72 °F (Jun 22, 5:00 PM)100% (Jun 20, 9:00 PM)30.05 "Hg (Jun 20, 9:00 PM)
Low34 °F (Jun 20, 2:00 AM)40% (Jun 22, 7:00 PM)29.55 "Hg (Jun 23, 7:00 AM)
Average48 °F76%29.85 "Hg
* Reported Jun 19 8:00 AM — Jul 4 8:00 AM, Kugluktuk, Weather by CustomWeather, © 2015

Note: Actual official high and low records may vary slightly from our data, if they occured in-between our weather recording intervals... More about our weather records

Advertising

Kugluktuk weather history for previous 24 hours

 ConditionsComfort  
Time TempWeatherWind HumidityBarometerVisibility
8:00 AM
Sat, Jul 4
57 °FMore clouds than sun.10 mph72%30.01 "Hg15 mi
7:00 AM55 °FMore clouds than sun.13 mph77%30.02 "Hg15 mi
6:00 AM52 °FPartly sunny.12 mph82%30.02 "Hg15 mi
5:00 AM46 °FBroken clouds.10 mph93%30.03 "Hg15 mi
4:00 AM46 °FFog.12 mph93%30.04 "Hg15 mi
3:00 AM48 °FFog.8 mph94%30.04 "Hg15 mi
2:00 AM48 °FFog.6 mph94%30.04 "Hg15 mi
1:00 AM52 °FPassing clouds.No wind88%30.05 "Hg15 mi
12:00 AM54 °FPassing clouds.2 mph82%30.04 "Hg15 mi
11:00 PM
Fri, Jul 3
54 °FPassing clouds.2 mph82%30.04 "Hg15 mi
10:00 PM57 °FPassing clouds.5 mph67%30.04 "Hg15 mi
9:00 PM57 °FSunny.8 mph67%30.03 "Hg15 mi
8:00 PM59 °FPassing clouds.8 mph59%30.02 "Hg15 mi
7:00 PM57 °FPassing clouds.9 mph67%30.02 "Hg15 mi
6:00 PM59 °FPassing clouds.7 mph63%30.02 "Hg15 mi
5:00 PM59 °FPassing clouds.9 mph63%30.01 "Hg15 mi
4:00 PM59 °FPassing clouds.10 mph63%30.00 "Hg15 mi
3:00 PM57 °FPassing clouds.13 mph63%30.00 "Hg15 mi
2:00 PM55 °FPassing clouds.10 mph67%30.00 "Hg15 mi
1:00 PM54 °FPassing clouds.9 mph67%29.99 "Hg15 mi
12:00 PM50 °FPassing clouds.5 mph76%29.99 "Hg15 mi
11:00 AM46 °FPassing clouds.8 mph82%29.98 "Hg15 mi
10:00 AM46 °FPassing clouds.7 mph82%29.98 "Hg15 mi
9:00 AM45 °FSunny.7 mph87%29.98 "Hg15 mi
Weather by CustomWeather, © 2015

See weather overviewHow to use our weather pages